• In Kazakhstan
  • List of Countries
  • For 7 days
  • Water Temperature
  • Satellite Maps
  • Weather Map
  • News
  • Weather Widgets
  • user-avatar
    Login

    Hourly Weather San Luis

    Today, 12 November, Monday

    Time Temperature Precipitation Wind Pressure Humidity
    00:00 +18°C° 0.5 mm 7 mps 695 mmHg 90%
    01:00 +17°C° 0.5 mm 7 mps 695 mmHg 89%
    02:00 +17°C° 0 mm 7 mps 694 mmHg 91%
    03:00 +17°C° 0.4 mm 7 mps 694 mmHg 90%
    04:00 +16°C° 0.4 mm 7 mps 694 mmHg 90%
    05:00 +16°C° 0.4 mm 8 mps 694 mmHg 89%
    06:00 +16°C° 0.2 mm 8 mps 694 mmHg 88%
    07:00 +15°C° 0.2 mm 8 mps 694 mmHg 87%
    08:00 +13°C° 0 mm 8 mps 694 mmHg 88%
    09:00 +13°C° 0.2 mm 8 mps 695 mmHg 86%
    10:00 +13°C° 0.2 mm 8 mps 695 mmHg 85%
    11:00 +14°C° 0.2 mm 7 mps 695 mmHg 84%
    12:00 +13°C° 0 mm 8 mps 695 mmHg 81%
    13:00 +13°C° 0 mm 8 mps 695 mmHg 78%
    14:00 +13°C° 0 mm 8 mps 695 mmHg 75%
    15:00 +13°C° 0 mm 9 mps 695 mmHg 73%
    16:00 +15°C° 0 mm 9 mps 695 mmHg 72%
    17:00 +15°C° 0 mm 9 mps 695 mmHg 70%
    18:00 +13°C° 0 mm 9 mps 696 mmHg 70%
    19:00 +12°C° 0 mm 9 mps 696 mmHg 70%
    20:00 +12°C° 0 mm 9 mps 697 mmHg 70%
    21:00 +12°C° 0 mm 7 mps 697 mmHg 70%
    22:00 +12°C° 0 mm 5 mps 698 mmHg 71%
    23:00 +12°C° 0 mm 4 mps 698 mmHg 71%

    Tomorrow, 13 November, Tuesday

    Time Temperature Precipitation Wind Pressure Humidity
    00:00 +12°C° 0 mm 4 mps 698 mmHg 74%
    01:00 +11°C° 0 mm 3 mps 697 mmHg 78%
    02:00 +10°C° 0 mm 3 mps 697 mmHg 81%
    03:00 +10°C° 0 mm 3 mps 697 mmHg 82%
    04:00 +10°C° 0 mm 2 mps 697 mmHg 83%
    05:00 +10°C° 0 mm 2 mps 697 mmHg 84%
    06:00 +13°C° 0 mm 2 mps 697 mmHg 72%
    07:00 +14°C° 0 mm 3 mps 697 mmHg 60%
    08:00 +17°C° 0 mm 3 mps 698 mmHg 48%
    09:00 +19°C° 0 mm 4 mps 698 mmHg 42%
    10:00 +21°C° 0 mm 5 mps 698 mmHg 35%
    11:00 +22°C° 0 mm 6 mps 698 mmHg 29%
    12:00 +23°C° 0 mm 6 mps 698 mmHg 27%
    13:00 +24°C° 0 mm 7 mps 698 mmHg 25%
    14:00 +24°C° 0 mm 7 mps 698 mmHg 23%
    15:00 +24°C° 0 mm 7 mps 697 mmHg 23%
    16:00 +24°C° 0 mm 7 mps 697 mmHg 22%
    17:00 +23°C° 0 mm 6 mps 697 mmHg 22%
    18:00 +21°C° 0 mm 5 mps 697 mmHg 26%
    19:00 +19°C° 0 mm 3 mps 697 mmHg 30%
    20:00 +17°C° 0 mm 2 mps 697 mmHg 34%
    21:00 +17°C° 0 mm 2 mps 697 mmHg 36%
    22:00 +16°C° 0 mm 2 mps 698 mmHg 37%
    23:00 +16°C° 0 mm 1 mps 698 mmHg 38%

    Day after tomorrow, 14 November, Wednesday

    Time Temperature Precipitation Wind Pressure Humidity
    00:00 +15°C° 0 mm 2 mps 697 mmHg 36%
    01:00 +15°C° 0 mm 2 mps 697 mmHg 35%
    02:00 +15°C° 0 mm 2 mps 697 mmHg 33%
    03:00 +15°C° 0 mm 2 mps 697 mmHg 34%
    04:00 +14°C° 0 mm 2 mps 697 mmHg 35%
    05:00 +14°C° 0 mm 1 mps 697 mmHg 35%
    06:00 +16°C° 0 mm 2 mps 697 mmHg 31%
    07:00 +19°C° 0 mm 2 mps 698 mmHg 27%
    08:00 +21°C° 0 mm 2 mps 699 mmHg 23%
    09:00 +24°C° 0 mm 2 mps 699 mmHg 21%
    10:00 +25°C° 0 mm 2 mps 699 mmHg 18%
    11:00 +27°C° 0 mm 3 mps 699 mmHg 16%
    12:00 +28°C° 0 mm 3 mps 698 mmHg 15%
    13:00 +29°C° 0 mm 3 mps 697 mmHg 13%
    14:00 +30°C° 0 mm 3 mps 697 mmHg 12%
    15:00 +30°C° 0 mm 3 mps 696 mmHg 11%
    16:00 +30°C° 0 mm 3 mps 696 mmHg 11%
    17:00 +30°C° 0 mm 3 mps 695 mmHg 11%
    18:00 +28°C° 0 mm 3 mps 695 mmHg 14%
    19:00 +26°C° 0 mm 3 mps 695 mmHg 17%
    20:00 +24°C° 0 mm 3 mps 695 mmHg 19%
    21:00 +22°C° 0 mm 4 mps 695 mmHg 21%
    22:00 +22°C° 0 mm 5 mps 695 mmHg 24%
    23:00 +21°C° 0 mm 6 mps 695 mmHg 26%

    15 November, Thursday

    Time Temperature Precipitation Wind Pressure Humidity
    00:00 +21°C° 0 mm 8 mps 694 mmHg 29%
    01:00 +21°C° 0 mm 9 mps 694 mmHg 31%
    02:00 +21°C° 0 mm 10 mps 693 mmHg 34%
    03:00 +21°C° 0 mm 9 mps 693 mmHg 37%
    04:00 +19°C° 0 mm 9 mps 693 mmHg 39%
    05:00 +19°C° 0 mm 9 mps 693 mmHg 41%
    06:00 +22°C° 0 mm 8 mps 694 mmHg 38%
    07:00 +24°C° 0 mm 8 mps 695 mmHg 35%
    08:00 +26°C° 0 mm 7 mps 696 mmHg 32%
    09:00 +27°C° 0 mm 6 mps 696 mmHg 30%
    10:00 +28°C° 0 mm 6 mps 697 mmHg 29%
    11:00 +29°C° 0 mm 5 mps 697 mmHg 27%
    12:00 +29°C° 0 mm 6 mps 697 mmHg 27%
    13:00 +30°C° 0 mm 7 mps 697 mmHg 27%
    14:00 +31°C° 0 mm 8 mps 697 mmHg 27%
    15:00 +29°C° 0 mm 9 mps 697 mmHg 29%
    16:00 +28°C° 0 mm 10 mps 697 mmHg 32%
    17:00 +27°C° 0 mm 11 mps 697 mmHg 34%
    18:00 +24°C° 0 mm 11 mps 697 mmHg 36%
    19:00 +22°C° 0 mm 11 mps 698 mmHg 38%
    20:00 +19°C° 0 mm 10 mps 699 mmHg 40%
    21:00 +19°C° 0 mm 10 mps 699 mmHg 40%
    22:00 +18°C° 0 mm 9 mps 699 mmHg 39%
    23:00 +17°C° 0 mm 9 mps 700 mmHg 39%

    16 November, Friday

    Time Temperature Precipitation Wind Pressure Humidity
    00:00 +16°C° 0.1 mm 8 mps 699 mmHg 41%
    01:00 +16°C° 0.1 mm 7 mps 699 mmHg 44%
    02:00 +15°C° 0.1 mm 7 mps 698 mmHg 46%
    03:00 +15°C° 0.3 mm 6 mps 698 mmHg 52%
    04:00 +15°C° 0.3 mm 6 mps 698 mmHg 57%
    05:00 +15°C° 0.3 mm 5 mps 697 mmHg 63%
    06:00 +17°C° 0.2 mm 6 mps 698 mmHg 59%
    07:00 +20°C° 0.2 mm 6 mps 698 mmHg 55%
    08:00 +22°C° 0.2 mm 7 mps 698 mmHg 51%
    09:00 +24°C° 0 mm 8 mps 698 mmHg 46%
    10:00 +27°C° 0 mm 9 mps 697 mmHg 41%
    11:00 +29°C° 0 mm 9 mps 697 mmHg 36%
    12:00 +31°C° 0 mm 9 mps 696 mmHg 33%
    13:00 +32°C° 0 mm 9 mps 695 mmHg 30%
    14:00 +33°C° 0 mm 9 mps 694 mmHg 26%
    15:00 +33°C° 0 mm 8 mps 693 mmHg 26%
    16:00 +33°C° 0 mm 7 mps 692 mmHg 26%
    17:00 +33°C° 0 mm 6 mps 692 mmHg 26%
    18:00 +30°C° 0.2 mm 6 mps 692 mmHg 33%
    19:00 +28°C° 0.2 mm 5 mps 692 mmHg 39%
    20:00 +26°C° 0.2 mm 5 mps 692 mmHg 46%
    21:00 +24°C° 0.1 mm 6 mps 692 mmHg 47%
    22:00 +24°C° 0.1 mm 7 mps 692 mmHg 48%
    23:00 +24°C° 0.1 mm 8 mps 693 mmHg 50%

    17 November, Saturday

    Time Temperature Precipitation Wind Pressure Humidity
    00:00 +23°C° 0.1 mm 7 mps 692 mmHg 52%
    01:00 +23°C° 0.1 mm 6 mps 692 mmHg 55%
    02:00 +22°C° 0.1 mm 6 mps 692 mmHg 58%
    03:00 +21°C° 0.1 mm 6 mps 693 mmHg 63%
    04:00 +18°C° 0.1 mm 7 mps 693 mmHg 68%
    05:00 +17°C° 0.1 mm 7 mps 694 mmHg 73%
    06:00 +18°C° 0 mm 8 mps 695 mmHg 66%
    07:00 +18°C° 0 mm 9 mps 697 mmHg 58%
    08:00 +19°C° 0 mm 10 mps 698 mmHg 51%
    09:00 +21°C° 0 mm 10 mps 698 mmHg 45%
    10:00 +22°C° 0 mm 9 mps 698 mmHg 40%
    11:00 +23°C° 0 mm 9 mps 699 mmHg 35%
    12:00 +24°C° 0 mm 8 mps 698 mmHg 33%
    13:00 +24°C° 0 mm 8 mps 697 mmHg 31%
    14:00 +26°C° 0 mm 7 mps 697 mmHg 29%
    15:00 +26°C° 0 mm 7 mps 696 mmHg 29%
    16:00 +26°C° 0 mm 7 mps 696 mmHg 30%
    17:00 +24°C° 0 mm 7 mps 695 mmHg 30%
    18:00 +23°C° 0 mm 7 mps 696 mmHg 33%
    19:00 +21°C° 0 mm 8 mps 696 mmHg 35%
    20:00 +20°C° 0 mm 8 mps 697 mmHg 37%
    21:00 +18°C° 0 mm 8 mps 697 mmHg 37%
    22:00 +18°C° 0 mm 8 mps 698 mmHg 37%
    23:00 +17°C° 0 mm 8 mps 698 mmHg 37%
    Show more